Regional Weather Roundup
Issued by NWS Glasgow, MT

Home | Current Version | Previous Version | Text Only | Print | Product List | Glossary On
Versions: 1 2 3 4 5 6 7 8 9 10 11 12 13 14 15 16 17 18 19 20 21 22 23 24 25 26 27 28 29 30 31 32 33 34 35 36 37 38 39 40 41 42 43 44 45 46 47 48 49 50
000
ASUS45 KGGW 222115
RWRGGW
HOURLY WEATHER ROUNDUP FOR NORTHEAST MONTANA
NATIONAL WEATHER SERVICE GLASGOW MONTANA
300 PM MDT TUE JUL 22 2014

NOTE: "FAIR" INDICATES FEW OR NO CLOUDS BELOW 12,000 FEET WITH NO
SIGNIFICANT WEATHER AND/OR OBSTRUCTIONS TO VISISBILITY.

NORTHEAST MONTANA


CITY           SKY/WX    TMP DP  RH WIND       PRES   REMARKS
GLASGOW        CLOUDY    84  50  30 VRB3      30.17S
PLENTYWOOD       N/A     79  54  41 NE3         N/A
WOLF POINT     CLOUDY    86  51  29 S7        30.18S
JORDAN           N/A     83  60  45 NE15G22   30.18S
WINNETT          N/A     81  51  35 NE7         N/A
SIDNEY         MOSUNNY  N/A N/A N/A CALM      30.19S
GLENDIVE       PTSUNNY   84  52  32 N3        30.18S
MALTA            N/A     82  57  42 E1          N/A
SCOBEY           N/A     80  53  39 CALM      30.20S

FORT PECK REPORTS


CITY           SKY/WX    TMP DP  RH WIND       PRES   REMARKS
FORT PECK        N/A     82  54  37 S3          N/A
THE PINES        N/A     79  49  34 E3          N/A

SOUTHEAST MONTANA


CITY           SKY/WX    TMP DP  RH WIND       PRES   REMARKS
BILLINGS       MOSUNNY   88  51  28 E8        30.18F
MILES CITY     MOSUNNY   93  54  26 VRB5G20   30.10F
BAKER          PTSUNNY   86  55  34 SE14      30.19S
LIVINGSTON     MOSUNNY   89  46  22 NW8       30.20F

CENTRAL MONTANA


CITY           SKY/WX    TMP DP  RH WIND       PRES   REMARKS
HAVRE          CLOUDY    82  50  32 S9        30.16S
LEWISTOWN      SUNNY     80  56  43 VRB3      30.23F
GREAT FALLS    SUNNY     84  50  30 NE12      30.17F
CUT BANK       CLOUDY    74  49  41 CALM      30.21S
HELENA         MOSUNNY   85  53  33 E15       30.15F
BUTTE          PTSUNNY   78  46  32 SW6       30.25F
BOZEMAN        MOSUNNY   84  48  28 N5        30.19F

WESTERN MONTANA


CITY           SKY/WX    TMP DP  RH WIND       PRES   REMARKS
MISSOULA       MOSUNNY   85  44  23 S6        30.11F
KALISPELL      NOT AVBL

NORTH DAKOTA


CITY           SKY/WX    TMP DP  RH WIND       PRES   REMARKS
WILLISTON      MOSUNNY   87  55  33 NW10      30.17S
DICKINSON      SUNNY     80  63  55 E7        30.21S
MINOT          MOSUNNY   78  60  53 NE6       30.20S
BISMARCK       PTSUNNY   81  59  47 VRB6      30.21S

SOUTHERN SASKATCHEWAN


CITY           SKY/WX    TMP DP  RH WIND       PRES   REMARKS
REGINA         MOSUNNY   77  50  38 N6        30.24S
MOOSE JAW      PTSUNNY   75  54  46 E5        30.24S
ESTEVAN        PTSUNNY   77  59  53 N3        30.21F
SWIFT CURRENT  MOSUNNY   75  55  50 SE13      30.23S



USA.gov is the U.S. government's official web portal to all federal, state and local government web resources and services.